GW2474 Weather Reports


time (UTC)temp
C
wind
direction
speed
KPH
gust
KPH
rain 1hr
cm
rain 24hr
cm
rain mn
cm
humidity
%
barometer
mb
20260903043103 26 0 1.6 4.8 0.00 0.03 0.00 82 1014.1
20260903041559 26 263 3.2 9.7 0.00 0.03 0.00 81 1014.1
20260903040106 26 265 3.2 9.7 0.00 0.03 0.00 81 1014.0
20260903034606 26 221 1.6 4.8 0.00 0.03 0.03 81 1013.8
20260903033123 26 227 1.6 4.8 0.00 0.03 0.03 80 1013.7
20260903031635 26 0 1.6 9.7 0.00 0.03 0.03 80 1013.7
20260903030107 27 270 3.2 9.7 0.00 0.03 0.03 79 1013.6
20260903024603 27 0 1.6 8.0 0.00 0.03 0.03 79 1013.5
20260903023108 27 267 0.0 6.4 0.00 0.03 0.03 78 1013.8
20260903021557 27 266 0.0 9.7 0.00 0.03 0.03 78 1014.0
20260903020105 27 177 0.0 9.7 0.00 0.03 0.03 78 1014.2
20260903014557 27 252 0.0 8.0 0.00 0.03 0.03 77 1014.1
20260903013101 28 0 0.0 6.4 0.00 0.03 0.03 77 1014.1
20260903011606 28 253 0.0 4.8 0.00 0.03 0.03 76 1013.9
20260903010104 28 254 0.0 4.8 0.00 0.03 0.03 75 1013.8
20260903004603 28 242 0.0 6.4 0.00 0.03 0.03 75 1013.6
20260903003101 29 0 0.0 4.8 0.00 0.03 0.03 74 1013.3
20260903001606 30 190 1.6 4.8 0.00 0.03 0.03 72 1013.3
20260902234607 31 201 0.0 6.4 0.00 0.03 0.03 68 1013.6
20260902233108 31 263 1.6 11.3 0.00 0.03 0.03 67 1013.6
20260902231606 32 217 1.6 6.4 0.00 0.03 0.03 65 1013.6
20260902230103 32 309 4.8 12.9 0.00 0.03 0.03 64 1013.6
20260902224608 32 170 3.2 12.9 0.00 0.03 0.03 63 1013.4
20260902223100 32 255 3.2 16.1 0.00 0.03 0.03 61 1013.5
20260902221555 33 153 3.2 9.7 0.00 0.03 0.03 59 1013.7
20260902220106 33 268 3.2 14.5 0.00 0.03 0.03 58 1013.6
20260902214601 33 165 4.8 22.5 0.00 0.05 0.03 57 1013.6
20260902213106 33 264 6.4 25.7 0.00 0.05 0.03 53 1013.7
20260902211606 33 262 6.4 17.7 0.00 0.05 0.03 52 1013.8
20260902210103 33 255 4.8 20.9 0.00 0.05 0.03 53 1013.8
20260902204603 32 282 9.7 19.3 0.00 0.05 0.03 53 1013.9
20260902203127 33 263 9.7 24.1 0.00 0.05 0.03 52 1014.1
20260902201613 32 250 11.3 19.3 0.00 0.05 0.03 54 1014.2
20260902200112 33 299 8.0 22.5 0.00 0.05 0.03 52 1014.4
20260902194601 33 269 12.9 22.5 0.00 0.05 0.03 52 1014.5
20260902193105 32 303 8.0 19.3 0.00 0.05 0.03 58 1014.7
20260902191605 31 268 4.8 14.5 0.00 0.05 0.03 61 1015.0
20260902190107 32 285 4.8 14.5 0.00 0.05 0.03 59 1015.0
20260902184604 32 281 6.4 19.3 0.00 0.05 0.03 58 1015.0
20260902183125 32 307 8.0 29.0 0.00 0.05 0.03 58 1015.3
20260902181607 32 257 6.4 20.9 0.00 0.05 0.03 57 1015.6
20260902180108 32 274 8.0 24.1 0.00 0.05 0.03 59 1015.6
20260902174608 32 284 11.3 24.1 0.00 0.05 0.03 58 1015.8
20260902173102 32 265 4.8 14.5 0.00 0.05 0.03 63 1015.8
20260902171604 32 302 4.8 19.3 0.00 0.05 0.03 65 1015.8
20260902170055 31 280 4.8 14.5 0.00 0.05 0.03 66 1015.9
20260902164606 31 257 9.7 17.7 0.00 0.05 0.03 65 1016.1
20260902163128 30 198 8.0 16.1 0.00 0.05 0.03 66 1016.3
20260902161608 30 310 6.4 19.3 0.00 0.05 0.03 68 1016.5
20260902160050 30 313 8.0 16.1 0.00 0.05 0.03 68 1016.4
20260902154603 30 263 8.0 16.1 0.00 0.05 0.03 70 1016.6
20260902153107 29 249 6.4 16.1 0.00 0.05 0.03 73 1016.6
20260902151607 28 235 4.8 11.3 0.00 0.05 0.03 75 1016.5
20260902144603 27 267 3.2 12.9 0.00 0.05 0.03 78 1016.4
20260902143106 27 271 3.2 9.7 0.00 0.05 0.03 80 1016.2
20260902141609 26 287 3.2 11.3 0.00 0.05 0.03 81 1016.2
20260902140107 26 268 4.8 12.9 0.00 0.05 0.03 82 1016.1
20260902134601 25 283 4.8 14.5 0.00 0.05 0.03 83 1016.0
20260902133110 25 244 4.8 12.9 0.00 0.05 0.03 83 1016.0
20260902131611 24 278 4.8 12.9 0.00 0.05 0.03 84 1016.2
20260902130105 23 243 3.2 12.9 0.00 0.05 0.03 85 1016.0
20260902124602 23 287 4.8 11.3 0.00 0.05 0.03 86 1016.0
20260902123115 22 251 1.6 9.7 0.00 0.05 0.03 87 1016.0
20260902121558 22 269 3.2 6.4 0.00 0.05 0.03 87 1016.0
20260902120112 22 263 1.6 4.8 0.00 0.05 0.03 86 1016.1
20260902114559 22 0 0.0 6.4 0.00 0.05 0.03 86 1016.0
20260902113055 22 0 0.0 3.2 0.00 0.05 0.03 86 1016.0
20260902111607 22 0 0.0 3.2 0.00 0.05 0.03 86 1016.1
20260902104557 22 0 0.0 3.2 0.00 0.05 0.03 86 1016.0
20260902103055 22 252 1.6 3.2 0.00 0.05 0.03 86 1016.1
20260902101559 22 0 0.0 4.8 0.03 0.05 0.03 86 1016.0
20260902100106 23 0 0.0 4.8 0.03 0.05 0.03 86 1016.0
20260902094557 23 254 1.6 6.4 0.03 0.05 0.03 86 1015.9
20260902093055 23 254 0.0 4.8 0.03 0.05 0.03 86 1015.9
20260902091609 23 0 0.0 3.2 0.00 0.03 0.00 85 1015.6
20260902084552 23 259 1.6 6.4 0.00 0.03 0.00 86 1015.6
20260902083136 23 0 1.6 8.0 0.00 0.03 0.00 86 1015.6
20260902081559 23 261 0.0 3.2 0.00 0.03 0.00 86 1015.5
20260902080105 23 261 0.0 4.8 0.00 0.03 0.00 86 1015.5
20260902074613 23 263 0.0 9.7 0.00 0.03 0.00 86 1015.6
20260902073108 23 0 1.6 4.8 0.00 0.03 0.00 86 1015.5
20260902071607 23 0 1.6 3.2 0.00 0.03 0.00 86 1015.5
20260902070056 22 0 0.0 1.6 0.00 0.03 0.00 85 1015.3
20260902064603 22 0 0.0 1.6 0.00 0.03 0.00 85 1015.3
20260902063104 22 0 0.0 1.6 0.00 0.03 0.00 85 1015.3
20260902061603 22 0 0.0 1.6 0.00 0.03 0.00 85 1015.4
20260902060120 22 0 0.0 0.0 0.00 0.03 0.00 84 1015.6
20260902054551 21 0 0.0 0.0 0.00 0.03 0.00 84 1015.8
20260902053110 22 0 0.0 1.6 0.00 0.03 0.00 84 1015.8
20260902051600 22 0 0.0 1.6 0.00 0.03 0.00 84 1015.6
20260902044604 22 0 0.0 1.6 0.00 0.03 0.00 84 1015.6